Regional Weather Roundup
Issued by NWS

Home | Current Version | Previous Version | Graphics & Text | Print | Product List | Glossary On
Versions: 1 2 3 4 5 6 7 8 9 10 11 12 13 14 15 16 17 18 19 20 21 22 23 24 25 26 27 28 29 30 31 32 33 34 35 36 37 38 39 40 41 42 43 44 45 46 47 48 49 50
000
ASUS43 KFSD 272110
RWRSD

WEATHER ROUNDUP FOR SOUTH DAKOTA
NATIONAL WEATHER SERVICE SIOUX FALLS SD
400 PM CDT SUN MAY 27 2018

NOTE: "FAIR" INDICATES FEW OR NO CLOUDS BELOW 12,000 FEET WITH NO
SIGNIFICANT WEATHER AND/OR OBSTRUCTIONS TO VISIBILITY.


SDZ001>005-009-010-012>017-272200-
NORTHWEST AND NORTH CENTRAL SOUTH DAKOTA

CITY           SKY/WX    TMP DP  RH WIND       PRES   REMARKS
BUFFALO          N/A     81  53  37 N18       29.87S
FAITH            N/A     81  63  54 N24G32    29.85R
MOBRIDGE       MOSUNNY   90  65  43 NW9       29.74R
$$

SDZ012>016-024>037-041>051-057-063-072>074-272200-
SOUTHWEST AND SOUTH CENTRAL SOUTH DAKOTA

CITY           SKY/WX    TMP DP  RH WIND       PRES   REMARKS
RAPID CTY ARPT PTSUNNY   79  56  45 N22G31    29.88R
PIERRE         SUNNY     89  66  46 W8        29.73R
CUSTER         PTSUNNY   76  41  28 NE18G26   29.99F
ELLSWORTH AFB  PTSUNNY   81  55  39 N21G30    29.88S
PHILIP         PTSUNNY   84  67  56 NW16      29.79R
PINE RIDGE     PTSUNNY   81  65  58 N9        29.87R
SPEARFISH      FAIR      73  57  56 N12       29.99R
WINNER         FAIR      94  59  31 SW24G30   29.76R
$$

SDZ004>011-016>023-039-040-272200-
NORTHEAST SOUTH DAKOTA

CITY           SKY/WX    TMP DP  RH WIND       PRES   REMARKS
ABERDEEN       SUNNY    100  57  23 S29G43    29.70S HX  99
WATERTOWN      SUNNY     95  59  30 S17       29.77S
BROOKINGS      SUNNY     97  58  27 S20G25    29.80S HX  96
SISSETON         N/A     89  67  47 SE18      29.73F
$$

SDZ017-020-022-023-036>040-048>070-272200-
SOUTHEAST SOUTH DAKOTA

CITY           SKY/WX    TMP DP  RH WIND       PRES   REMARKS
SIOUX FALLS    MOSUNNY   93  65  39 S13G20    29.79F HX  95
HURON          MOSUNNY   97  57  26 S20G36    29.72F HX  96
CHAMBERLAIN    MOSUNNY   96  62  31 S20G25    29.74S HX  97
MITCHELL       MOSUNNY   97  60  29 SW15G25   29.75F HX  97
YANKTON        MOSUNNY   96  61  31 SW10      29.80S HX  96
$$

ABBREVIATIONS USED IN REMARKS
   TC - TEMPERATURE IN CELSIUS
  WCI - WIND CHILL INDEX
   HX - HEAT INDEX
  VSB - VISIBILITY





USA.gov is the U.S. government's official web portal to all federal, state and local government web resources and services.